TimeEST,TemperatureF,Dew PointF,Humidity,Sea Level PressureIn,VisibilityMPH,Wind Direction,Wind SpeedMPH,Gust SpeedMPH,PrecipitationIn,Events,Conditions,WindDirDegrees,DateUTC
12:06 AM,48.2,46.4,93,30.05,1.2,Calm,Calm,-,N/A,,Clear,0,2007-11-14 05:06:00
12:08 AM,48.2,46.4,93,30.05,2.0,Calm,Calm,-,N/A,,Partly Cloudy,0,2007-11-14 05:08:00
12:16 AM,50.0,46.4,87,30.04,5.0,Calm,Calm,-,N/A,,Scattered Clouds,0,2007-11-14 05:16:00
12:49 AM,48.2,48.2,100,30.04,3.0,Calm,Calm,-,N/A,,Overcast,0,2007-11-14 05:49:00
12:54 AM,48.9,48.0,97,30.00,4.0,Calm,Calm,-,N/A,,Overcast,0,2007-11-14 05:54:00
1:50 AM,48.2,46.4,93,30.03,1.2,WNW,3.5,-,N/A,,Mostly Cloudy,290,2007-11-14 06:50:00
1:54 AM,48.0,46.0,93,29.99,0.5,West,3.5,-,N/A,Fog,Fog,260,2007-11-14 06:54:00
2:02 AM,48.2,46.4,93,30.02,0.2,Calm,Calm,-,N/A,Fog,Fog,0,2007-11-14 07:02:00
2:12 AM,46.4,44.6,93,30.02,1.0,Calm,Calm,-,N/A,,Overcast,0,2007-11-14 07:12:00
2:15 AM,46.4,44.6,93,30.01,2.0,South,4.6,-,N/A,,Overcast,190,2007-11-14 07:15:00
2:22 AM,46.4,44.6,93,30.03,1.8,North,5.8,-,N/A,,Overcast,10,2007-11-14 07:22:00
2:30 AM,48.2,46.4,93,30.03,2.0,Calm,Calm,-,N/A,,Mostly Cloudy,0,2007-11-14 07:30:00
2:38 AM,48.2,46.4,93,30.02,1.5,North,3.5,-,N/A,,Mostly Cloudy,360,2007-11-14 07:38:00
2:43 AM,46.4,46.4,100,30.02,1.0,WNW,5.8,-,N/A,,Overcast,300,2007-11-14 07:43:00
2:54 AM,48.0,46.9,96,29.99,1.2,Calm,Calm,-,N/A,,Overcast,0,2007-11-14 07:54:00
3:22 AM,46.4,46.4,100,30.02,0.8,Calm,Calm,-,N/A,,Mist,0,2007-11-14 08:22:00
3:54 AM,48.0,46.9,96,29.98,0.2,North,3.5,-,N/A,Fog,Fog,350,2007-11-14 08:54:00
4:04 AM,48.2,46.4,93,30.01,0.5,Calm,Calm,-,N/A,Fog,Fog,0,2007-11-14 09:04:00
4:17 AM,48.2,46.4,93,30.01,0.2,NNW,4.6,-,N/A,Fog,Fog,340,2007-11-14 09:17:00
4:27 AM,48.2,46.4,93,30.01,0.5,Calm,Calm,-,N/A,Fog,Fog,0,2007-11-14 09:27:00
4:54 AM,48.0,46.0,93,29.98,0.2,North,4.6,-,N/A,Fog,Fog,360,2007-11-14 09:54:00
5:43 AM,48.2,46.4,93,30.02,0.8,NNW,3.5,-,N/A,,Overcast,340,2007-11-14 10:43:00
5:45 AM,48.2,46.4,93,30.01,1.2,Calm,Calm,-,N/A,,Overcast,0,2007-11-14 10:45:00
5:48 AM,48.2,46.4,93,30.01,2.0,North,3.5,-,N/A,,Overcast,360,2007-11-14 10:48:00
5:54 AM,48.9,46.9,93,29.99,6.0,North,3.5,-,N/A,,Overcast,350,2007-11-14 10:54:00
6:42 AM,46.4,46.4,100,30.02,1.5,South,3.5,-,N/A,,Overcast,170,2007-11-14 11:42:00
6:45 AM,46.4,46.4,100,30.02,0.8,Calm,Calm,-,N/A,,Overcast,0,2007-11-14 11:45:00
6:54 AM,46.9,46.0,97,30.00,0.5,South,3.5,-,N/A,Fog,Fog,180,2007-11-14 11:54:00
7:03 AM,46.4,46.4,100,30.02,0.5,Calm,Calm,-,N/A,Fog,Fog,0,2007-11-14 12:03:00
7:23 AM,48.2,46.4,93,30.02,1.5,Calm,Calm,-,N/A,,Overcast,0,2007-11-14 12:23:00
7:26 AM,48.2,46.4,93,30.02,2.5,Calm,Calm,-,N/A,,Overcast,0,2007-11-14 12:26:00
7:33 AM,48.2,46.4,93,30.02,4.0,North,4.6,-,N/A,,Mostly Cloudy,10,2007-11-14 12:33:00
7:54 AM,48.9,46.9,93,30.00,5.0,WNW,4.6,-,N/A,,Overcast,300,2007-11-14 12:54:00
8:32 AM,50.0,48.2,94,30.03,3.0,NW,3.5,-,N/A,,Scattered Clouds,320,2007-11-14 13:32:00
8:54 AM,51.1,48.9,92,30.00,4.0,Calm,Calm,-,N/A,,Partly Cloudy,0,2007-11-14 13:54:00
9:54 AM,60.1,51.1,72,29.98,8.0,NNE,4.6,-,N/A,,Clear,20,2007-11-14 14:54:00
10:54 AM,63.0,51.1,65,29.97,10.0,Calm,Calm,-,N/A,,Mostly Cloudy,0,2007-11-14 15:54:00
11:54 AM,66.0,51.1,59,29.94,10.0,Variable,3.5,-,N/A,,Mostly Cloudy,0,2007-11-14 16:54:00
12:54 PM,66.0,52.0,60,29.92,10.0,South,3.5,-,N/A,,Mostly Cloudy,170,2007-11-14 17:54:00
1:54 PM,70.0,51.1,51,29.89,9.0,SSE,8.1,-,N/A,,Clear,160,2007-11-14 18:54:00
2:54 PM,71.1,51.1,49,29.87,7.0,Calm,Calm,-,N/A,,Scattered Clouds,0,2007-11-14 19:54:00
3:54 PM,71.1,46.9,42,29.86,10.0,SW,6.9,-,N/A,,Partly Cloudy,220,2007-11-14 20:54:00
4:54 PM,66.9,51.1,57,29.86,10.0,South,6.9,-,N/A,,Clear,180,2007-11-14 21:54:00
5:54 PM,64.0,52.0,65,29.85,10.0,South,6.9,-,N/A,,Clear,180,2007-11-14 22:54:00
6:54 PM,66.0,53.1,63,29.87,10.0,South,10.4,18.4,N/A,,Mostly Cloudy,190,2007-11-14 23:54:00
7:54 PM,66.0,53.1,63,29.84,10.0,SSW,12.7,-,N/A,,Overcast,200,2007-11-15 00:54:00
8:54 PM,64.0,55.0,73,29.84,10.0,SSW,9.2,17.3,0.00,Rain,Light Rain,210,2007-11-15 01:54:00
9:54 PM,62.1,55.9,80,29.83,10.0,SSW,9.2,-,0.00,,Overcast,210,2007-11-15 02:54:00
10:54 PM,61.0,55.0,81,29.79,10.0,SSW,9.2,-,0.00,,Mostly Cloudy,200,2007-11-15 03:54:00
11:54 PM,60.1,55.9,86,29.78,5.0,SSW,10.4,-,0.06,Rain,Rain,210,2007-11-15 04:54:00